Printer-friendly version

IAU Minor Planet Center

Minor Planet Center

MPEC 2004-K01 : 2004 JO20

The following Minor Planet Electronic Circular may be linked-to from your own Web pages, but must not otherwise be redistributed electronically.


Read MPEC 2004-J76 Read MPEC 2004-K02


M.P.E.C. 2004-K01                                Issued 2004 May 16, 01:11 UT

     The Minor Planet Electronic Circulars contain information on unusual
         minor planets and routine data on comets.  They are published
   on behalf of Commission 20 of the International Astronomical Union by the
          Minor Planet Center, Smithsonian Astrophysical Observatory,
                          Cambridge, MA 02138, U.S.A.

         Supported in part by the Steven and Michele Kirsch Foundation
             Prepared using the Tamkin Foundation Computer Network

                              MPC@CFA.HARVARD.EDU
          URL http://cfa-www.harvard.edu/iau/mpc.html  ISSN 1523-6714

                                   2004 JO20

Observations:
     K04J20O* C2004 05 15.20801 14 22 03.30 -16 26 26.7          18.7   EK001704
     K04J20O  C2004 05 15.21740 14 22 03.11 -16 21 02.6          18.4   EK001704
     K04J20O  C2004 05 15.22680 14 22 02.85 -16 15 37.0          18.7   EK001704
     K04J20O  C2004 05 15.23620 14 22 02.63 -16 10 07.5          18.9   EK001704
     K04J20O  C2004 05 15.24559 14 22 02.42 -16 04 35.9          18.8   EK001704
     K04J20O  C2004 05 15.88952514 24 10.38 -07 57 24.8          17.6 R EK001J95
     K04J20O  C2004 05 15.89505914 24 10.78 -07 52 01.2          17.7 R EK001J95
     K04J20O  C2004 05 15.90726314 24 11.81 -07 40 07.6          18.1 R EK001J95
     K04J20O  C2004 05 15.91577914 24 12.57 -07 31 42.7          18.1 R EK001J95
     K04J20O  C2004 05 15.91934714 24 12.80 -07 28 10.7          17.9 R EK001J95
     K04J20O  C2004 05 15.95580 14 24 13.08 -06 50 06.3          17.7 R EK001620
     K04J20O  C2004 05 15.95973 14 24 13.20 -06 46 03.5          17.8 R EK001620
     K04J20O  C2004 05 15.99605 14 24 16.60 -06 08 05.0          17.5 V EK001941
     K04J20O  C2004 05 15.99653 14 24 16.64 -06 07 34.8          17.3 V EK001941
     K04J20O  C2004 05 15.99684 14 24 16.64 -06 07 14.3          17.2 V EK001941
     K04J20O  C2004 05 15.99716 14 24 16.65 -06 06 54.2          17.3 V EK001941
     K04J20O  C2004 05 15.99779 14 24 16.69 -06 06 13.6          17.5 V EK001941

Observer details:
620 Observatorio Astronomico de Mallorca.  Observers S. Sanchez, R. Stoss,
    J. Nomen.  0.30-m f/9 Schmidt-Cassegrain + CCD.
704 Lincoln Laboratory ETS, New Mexico.  Observers M. Blythe, F. Shelly,
    M. Bezpalko, R. Huber, L. Manguso, D. Torres, R. Kracke, M. McCleary,
    H. Stange, A. Milner.  Measurers J. Stuart, R. Sayer, J. Evans, J. Kommers.
    1.0-m f/2.15 reflector + CCD.
941 Observatorio Pla D'Arguines.  Observer R. Ferrando.  0.36-m telescope
    + CCD.
J95 Great Shefford.  Observer P. Birtwhistle.  0.30-m f/6.3 Schmidt-Cassegrain
    + CCD.

Orbital elements:
2004 JO20
Epoch 2004 July 14.0 TT = JDT 2453200.5                 MPC
M   4.80303              (2000.0)            P               Q
n   0.55242764     Peri.   68.06912     +0.52667736     +0.83758567
a   1.4710218      Node   234.53072     -0.83078404     +0.47101958
e   0.4335950      Incl.   10.26450     -0.18002452     +0.27675042
P   1.78           H   25.9           G   0.15           U   7
Residuals in seconds of arc
040515 704  0.2+  0.2-    040515 J95  0.7-  0.9+    040515 941  0.1-  0.1-
040515 704  0.3+  0.3+    040515 J95  0.3-  0.8-    040515 941  0.2+  0.5-
040515 704  0.3-  0.5-    040515 J95  0.9+  0.4+    040515 941  0.0   0.2+
040515 704  0.2-  0.0     040515 J95  0.1+  0.3+    040515 941  0.1-  0.1-
040515 704  0.1+  0.4+    040515 620  0.4+  0.0     040515 941  0.0   0.2+
040515 J95  0.3+  0.9-    040515 620  0.0   0.4+

Ephemeris:
2004 JO20                a,e,i = 1.47, 0.43, 10                  q = 0.8332
Date    TT    R. A. (2000) Decl.     Delta      r     Elong.  Phase     V
2004 05 15.0  14 21.48   -18 12.6    0.020    1.030   164.1    15.5    18.3
2004 05 15.5  14 22.71   -13 13.9    0.017    1.027   162.8    16.9    18.0
2004 05 16.0  14 24.44   -05 57.2    0.014    1.024   158.9    20.8    17.7
2004 05 16.5  14 27.04   +05 11.4    0.011    1.021   150.5    29.2    17.4
2004 05 17.0  14 31.33   +22 25.4    0.0090   1.018   135.3    44.3    17.4
2004 05 17.5  14 39.76   +46 13.0    0.0081   1.015   113.0    66.6    17.8
2004 05 18.0  15 03.67   +70 28.7    0.0088   1.012    89.7    89.8    18.8
2004 05 18.5  19 18.58   +86 30.9    0.011    1.008    72.4   107.0    20.1
2004 05 19.0  01 18.29   +78 39.2    0.013    1.005    61.3   118.1    21.3

                       (Last issue was M.P.E.C. 2004-J76)

Kyle E. Smalley              (C) Copyright 2004 MPC           M.P.E.C. 2004-K01

Read MPEC 2004-J76 Read MPEC 2004-K02


Our Web policy. Index to the CBAT/MPC/ICQ pages.


Valid HTML 4.01!